Terminal Aerodrome Forecast
Issued by NWS Hastings, NE

Home | Current Version | Previous Version | Text Only | Print | Product List | Glossary On
Versions: 1 2 3 4 5 6 7 8 9 10 11 12 13 14 15 16 17 18 19 20 21 22 23 24 25 26
000
FTUS45 KGID 251128
TAFEAR
TAF
KEAR 251128Z 2512/2612 VRB06KT P6SM SKC
     FM251700 12009KT P6SM SKC
     FM260800 14008KT 6SM BR SCT010
      AMD LTD TO CLD VIS AND WIND=

USA.gov is the U.S. government's official web portal to all federal, state and local government web resources and services.